Time,TemperatureF,DewpointF,PressureIn,WindDirection,WindDirectionDegrees,WindSpeedMPH,WindSpeedGustMPH,Humidity,HourlyPrecipIn,Conditions,Clouds,dailyrainin,SoftwareType,DateUTC
2013-01-06 15:03:00,39.0,25.0,30.31,NNW,333,0.0,0.0,56,0.00,,,0.00,,2013-01-06 21:03:00,
2013-01-06 15:12:00,39.0,25.0,30.31,NNW,333,0.0,0.0,56,0.00,,,0.00,,2013-01-06 21:12:00,
2013-01-06 15:42:00,39.0,23.0,30.32,NW,304,0.0,0.0,52,0.00,,,0.00,,2013-01-06 21:42:00,
2013-01-06 15:52:00,39.0,23.0,30.33,NNE,14,0.0,0.0,52,0.00,,,0.00,,2013-01-06 21:52:00,
2013-01-06 16:02:00,39.0,23.0,30.33,NW,323,0.0,0.0,53,0.00,,,0.00,,2013-01-06 22:02:00,
2013-01-06 16:12:00,39.0,23.0,30.33,NW,323,0.0,0.0,53,0.00,,,0.00,,2013-01-06 22:12:00,
2013-01-06 16:22:00,39.0,23.0,30.33,NW,323,0.0,0.0,53,0.00,,,0.00,,2013-01-06 22:22:00,
2013-01-06 16:33:00,39.0,23.0,30.33,NW,323,0.0,0.0,53,0.00,,,0.00,,2013-01-06 22:33:00,
2013-01-06 16:43:00,39.0,23.0,30.33,NW,323,0.0,0.0,53,0.00,,,0.00,,2013-01-06 22:43:00,
2013-01-06 16:52:00,38.0,22.0,30.35,NNW,337,0.0,0.0,53,0.00,,,0.00,,2013-01-06 22:52:00,
2013-01-06 17:02:00,37.0,21.0,30.35,NNW,342,0.0,0.0,53,0.00,,,0.00,,2013-01-06 23:02:00,
2013-01-06 17:12:00,37.0,21.0,30.35,NNW,342,0.0,0.0,53,0.00,,,0.00,,2013-01-06 23:12:00,
2013-01-06 17:22:00,37.0,22.0,30.35,WNW,302,0.0,0.0,55,0.00,,,0.00,,2013-01-06 23:22:00,
2013-01-06 17:33:00,37.0,22.0,30.35,WNW,302,0.0,0.0,55,0.00,,,0.00,,2013-01-06 23:33:00,
2013-01-06 17:42:00,37.0,22.0,30.35,WNW,302,0.0,0.0,55,0.00,,,0.00,,2013-01-06 23:42:00,
2013-01-06 17:52:00,35.0,22.0,30.37,NNW,331,0.0,0.0,58,0.00,,,0.00,,2013-01-06 23:52:00,
2013-01-06 18:02:00,35.0,22.0,30.37,NNW,331,0.0,0.0,58,0.00,,,0.00,,2013-01-07 00:02:00,
2013-01-06 18:12:00,35.0,22.0,30.37,NNW,331,0.0,0.0,58,0.00,,,0.00,,2013-01-07 00:12:00,
2013-01-06 18:23:00,34.0,22.0,30.37,NNW,328,0.0,0.0,62,0.00,,,0.00,,2013-01-07 00:23:00,
2013-01-06 18:33:00,33.0,22.0,30.37,NNW,328,0.0,0.0,63,0.00,,,0.00,,2013-01-07 00:33:00,
2013-01-06 18:42:00,33.0,22.0,30.37,NNW,328,0.0,0.0,63,0.00,,,0.00,,2013-01-07 00:42:00,
2013-01-06 18:52:00,32.0,22.0,30.37,NW,324,0.0,0.0,66,0.00,,,0.00,,2013-01-07 00:52:00,
2013-01-06 19:02:00,31.0,21.0,30.38,NW,324,0.0,0.0,66,0.00,,,0.00,,2013-01-07 01:02:00,
2013-01-06 19:12:00,31.0,21.0,30.38,NW,324,0.0,0.0,66,0.00,,,0.00,,2013-01-07 01:12:00,
2013-01-06 19:23:00,30.0,21.0,30.39,NW,324,0.0,0.0,69,0.00,,,0.00,,2013-01-07 01:23:00,
2013-01-06 19:32:00,30.0,22.0,30.39,NW,324,0.0,0.0,71,0.00,,,0.00,,2013-01-07 01:32:00,
2013-01-06 19:42:00,30.0,22.0,30.39,NW,324,0.0,0.0,71,0.00,,,0.00,,2013-01-07 01:42:00,
2013-01-06 19:52:00,29.0,21.0,30.39,NW,324,0.0,0.0,73,0.00,,,0.00,,2013-01-07 01:52:00,
2013-01-06 20:02:00,29.0,22.0,30.38,NW,324,0.0,0.0,74,0.00,,,0.00,,2013-01-07 02:02:00,
2013-01-06 20:12:00,29.0,22.0,30.38,NW,324,0.0,0.0,74,0.00,,,0.00,,2013-01-07 02:12:00,
2013-01-06 20:22:00,29.0,22.0,30.38,NW,324,0.0,0.0,74,0.00,,,0.00,,2013-01-07 02:22:00,
2013-01-06 20:32:00,28.0,21.0,30.39,NW,324,0.0,0.0,75,0.00,,,0.00,,2013-01-07 02:32:00,
2013-01-06 20:42:00,28.0,21.0,30.39,NW,324,0.0,0.0,75,0.00,,,0.00,,2013-01-07 02:42:00,
2013-01-06 20:52:00,28.0,21.0,30.39,NW,324,0.0,0.0,75,0.00,,,0.00,,2013-01-07 02:52:00,
2013-01-06 21:02:00,28.0,22.0,30.39,NW,324,0.0,0.0,77,0.00,,,0.00,,2013-01-07 03:02:00,
2013-01-06 21:12:00,28.0,22.0,30.39,NW,324,0.0,0.0,77,0.00,,,0.00,,2013-01-07 03:12:00,
2013-01-06 21:22:00,27.0,21.0,30.38,NW,324,0.0,0.0,77,0.00,,,0.00,,2013-01-07 03:22:00,
2013-01-06 21:33:00,27.0,21.0,30.39,NW,324,0.0,0.0,78,0.00,,,0.00,,2013-01-07 03:33:00,
2013-01-06 21:42:00,27.0,21.0,30.39,NW,324,0.0,0.0,78,0.00,,,0.00,,2013-01-07 03:42:00,
2013-01-06 21:52:00,27.0,21.0,30.39,NW,324,0.0,0.0,78,0.00,,,0.00,,2013-01-07 03:52:00,
2013-01-06 22:02:00,27.0,22.0,30.40,WNW,290,0.0,0.0,80,0.00,,,0.00,,2013-01-07 04:02:00,
2013-01-06 22:12:00,27.0,22.0,30.40,WNW,290,0.0,0.0,80,0.00,,,0.00,,2013-01-07 04:12:00,
2013-01-06 22:22:00,27.0,21.0,30.40,WNW,290,0.0,0.0,79,0.00,,,0.00,,2013-01-07 04:22:00,
2013-01-06 22:32:00,27.0,22.0,30.39,WNW,290,0.0,0.0,80,0.00,,,0.00,,2013-01-07 04:32:00,
2013-01-06 22:42:00,27.0,22.0,30.39,WNW,290,0.0,0.0,80,0.00,,,0.00,,2013-01-07 04:42:00,
2013-01-06 22:52:00,27.0,22.0,30.39,WNW,290,0.0,0.0,81,0.00,,,0.00,,2013-01-07 04:52:00,
2013-01-06 23:03:00,26.0,21.0,30.40,WNW,290,0.0,0.0,80,0.00,,,0.00,,2013-01-07 05:03:00,
2013-01-06 23:12:00,26.0,21.0,30.40,WNW,290,0.0,0.0,80,0.00,,,0.00,,2013-01-07 05:12:00,
2013-01-06 23:22:00,26.0,21.0,30.41,WNW,290,0.0,0.0,81,0.00,,,0.00,,2013-01-07 05:22:00,
2013-01-06 23:33:00,26.0,21.0,30.41,WNW,290,0.0,0.0,82,0.00,,,0.00,,2013-01-07 05:33:00,
2013-01-06 23:42:00,26.0,21.0,30.41,WNW,290,0.0,0.0,82,0.00,,,0.00,,2013-01-07 05:42:00,
2013-01-06 23:52:00,25.0,21.0,30.41,WNW,290,0.0,0.0,83,0.00,,,0.00,,2013-01-07 05:52:00,